Stations météo

Publicité
Roma Fiumicino, Italie (16242): Température de l'air & dewpoint: 11.12.2018 14:00:00 - 17.12.2018 14:00:00 (CET)Roma Fiumicino, Italie (16242): Vitesse du vent: 11.12.2018 14:00:00 - 17.12.2018 14:00:00 (CET)Roma Fiumicino, Italie (16242): Direction du vent: 11.12.2018 14:00:00 - 17.12.2018 14:00:00 (CET)Roma Fiumicino, Italie (16242): reduced air pressure: 11.12.2018 14:00:00 - 17.12.2018 14:00:00 (CET)Roma Fiumicino, Italie (16242): visibility: 11.12.2018 14:00:00 - 17.12.2018 14:00:00 (CET)
Date & Time tt [°C] td [°C] ff [km/h] ff [knt] dd ppp [hPa] vv [km]
17.12.2018 14:00:00 10,0 4,0 16 9 N - 10
17.12.2018 13:00:00 10,1 4,6 11 6 N 1012,7 10
17.12.2018 12:00:00 10,0 5,0 16 9 N - 10
17.12.2018 11:00:00 9,0 5,0 13 7 NNE - 10
17.12.2018 10:00:00 9,1 5,9 15 8 NNE 1013,5 10
17.12.2018 09:00:00 8,0 6,0 11 6 N - 10
17.12.2018 08:00:00 8,0 6,0 4 2 - - 10
17.12.2018 07:00:00 8,4 6,9 9 5 NNW 1010,9 10
17.12.2018 06:00:00 12,0 9,0 22 12 W - 10
17.12.2018 05:00:00 13,0 11,0 22 12 W - 10
17.12.2018 04:00:00 14,1 10,7 22 12 W 1009,3 10
17.12.2018 03:00:00 15,0 12,0 39 21 WSW - 10
17.12.2018 02:00:00 10,0 9,0 26 14 SSE - 5
17.12.2018 01:00:00 9,9 8,7 29 16 SSE 1011,4 8
17.12.2018 00:00:00 9,0 7,0 35 19 SE - 5
16.12.2018 23:00:00 9,0 7,0 31 17 SE - 5
16.12.2018 22:00:00 9,8 6,4 31 17 SE 1014,4 10
16.12.2018 21:00:00 10,0 5,0 26 14 SE - 10
16.12.2018 20:00:00 9,0 5,0 16 9 ESE - 10
16.12.2018 19:00:00 9,4 4,9 16 9 ESE 1017,8 10
16.12.2018 18:00:00 10,0 5,0 11 6 E - 10
16.12.2018 17:00:00 10,0 5,0 9 5 E - 10
16.12.2018 16:00:00 10,0 4,2 9 5 E 1018,8 10
16.12.2018 15:00:00 10,0 3,0 5 3 - - 10
16.12.2018 14:00:00 9,0 2,0 9 5 E - 10
16.12.2018 13:00:00 8,8 1,5 8 4 ENE 1019,7 10
16.12.2018 12:00:00 8,0 0,0 13 7 ENE - 10
16.12.2018 11:00:00 6,0 -1,0 13 7 ENE - 10
16.12.2018 10:00:00 4,7 -1,4 11 6 ENE 1020,8 10
16.12.2018 09:00:00 3,0 -2,0 9 5 NE - 10
16.12.2018 08:00:00 1,0 -3,0 8 4 NE - 10
16.12.2018 07:00:00 0,8 -3,5 8 4 NE 1020,0 10
16.12.2018 06:00:00 0,0 -4,0 8 4 NE - 10
16.12.2018 05:00:00 1,0 -3,0 9 5 NE - 10
16.12.2018 04:00:00 0,7 -3,5 9 5 N 1019,3 10
16.12.2018 03:00:00 2,0 -3,0 8 4 NNW - 10
16.12.2018 02:00:00 3,0 -3,0 13 7 N - 10
16.12.2018 01:00:00 3,3 -3,1 16 9 NNE 1019,1 10
16.12.2018 00:00:00 4,0 -3,0 16 9 NNE - 10
15.12.2018 23:00:00 4,0 -3,0 13 7 NNE - 10
15.12.2018 22:00:00 4,5 -3,3 26 14 N 1017,8 10
15.12.2018 21:00:00 5,0 -3,0 15 8 N - 10
15.12.2018 20:00:00 5,0 -3,0 22 12 N - 10
15.12.2018 19:00:00 5,5 -2,8 26 14 N 1017,1 10
15.12.2018 18:00:00 6,0 -2,0 21 11 N - 10
15.12.2018 17:00:00 7,0 -2,0 24 13 NNW - 10
15.12.2018 16:00:00 8,0 -0,8 24 13 NNW 1015,2 10
15.12.2018 15:00:00 9,0 -1,0 26 14 N - 10
15.12.2018 14:00:00 10,0 0,0 29 16 N - 10
15.12.2018 13:00:00 9,6 0,2 26 14 N 1013,8 10
15.12.2018 12:00:00 9,0 1,0 26 14 N - 10
15.12.2018 11:00:00 8,0 1,0 26 14 N - 10
15.12.2018 10:00:00 7,3 0,2 24 13 N 1013,9 10
15.12.2018 09:00:00 6,0 0,0 16 9 N - 10
15.12.2018 08:00:00 5,0 0,0 22 12 N - 10
15.12.2018 07:00:00 4,0 -0,3 11 6 N 1012,3 10
15.12.2018 06:00:00 4,0 0,0 13 7 N - 10
15.12.2018 05:00:00 5,0 1,0 13 7 N - 10
15.12.2018 04:00:00 4,6 0,8 11 6 N 1011,4 35
15.12.2018 03:00:00 5,0 1,0 13 7 N - 10
15.12.2018 02:00:00 5,0 2,0 9 5 N - 10
15.12.2018 01:00:00 5,7 2,1 15 8 N 1010,9 10
15.12.2018 00:00:00 7,0 3,0 15 8 N - 10
14.12.2018 23:00:00 7,0 3,0 13 7 NNE - 10
14.12.2018 22:00:00 7,4 3,3 13 7 N 1010,5 10
14.12.2018 21:00:00 8,0 4,0 15 8 N - 10
14.12.2018 20:00:00 8,0 5,0 11 6 NNE - 10
14.12.2018 19:00:00 7,9 5,4 11 6 NNE 1009,6 10
14.12.2018 18:00:00 8,0 5,0 13 7 NE - 10
14.12.2018 17:00:00 8,0 6,0 16 9 NNE - 10
14.12.2018 16:00:00 8,4 6,0 13 7 NNE 1008,4 10
14.12.2018 15:00:00 8,0 7,0 16 9 NNE - 10
14.12.2018 14:00:00 9,0 7,0 15 8 NNE - 10
14.12.2018 13:00:00 8,7 6,8 16 9 NE 1007,5 10
14.12.2018 12:00:00 9,0 7,0 16 9 NE - 10
14.12.2018 11:00:00 8,0 6,0 15 8 NE - 10
14.12.2018 10:00:00 7,7 6,3 15 8 NNE 1008,0 10
14.12.2018 09:00:00 7,0 6,0 16 9 NNE - 10
14.12.2018 08:00:00 7,0 6,0 16 9 NE - 10
14.12.2018 07:00:00 7,7 5,6 16 9 NE 1007,1 10
14.12.2018 06:00:00 8,0 6,0 18 10 NE - 10
14.12.2018 05:00:00 7,0 6,0 18 10 NE - 10
14.12.2018 04:00:00 7,7 6,1 21 11 NE 1007,7 10
14.12.2018 03:00:00 8,0 6,0 21 11 NE - 10
14.12.2018 02:00:00 8,0 7,0 15 8 NE - 10
14.12.2018 01:00:00 7,8 6,5 15 8 ENE 1009,1 10
14.12.2018 00:00:00 7,0 6,0 16 9 ENE - 10
13.12.2018 23:00:00 8,0 6,0 15 8 ENE - 8
13.12.2018 22:00:00 7,8 6,6 13 7 NE 1010,0 10
13.12.2018 21:00:00 8,0 7,0 8 4 NE - 10
13.12.2018 20:00:00 8,0 6,0 9 5 NE - 10
13.12.2018 19:00:00 7,6 6,2 11 6 ENE 1010,0 10
13.12.2018 18:00:00 8,0 6,0 11 6 ENE - 10
13.12.2018 17:00:00 8,0 6,0 11 6 NE - 10
13.12.2018 16:00:00 8,4 6,2 13 7 NE 1010,1 9
13.12.2018 15:00:00 10,0 6,0 11 6 ENE - 9
13.12.2018 14:00:00 11,0 7,0 9 5 NE - 10
13.12.2018 13:00:00 11,3 6,4 11 6 E 1010,4 10
13.12.2018 12:00:00 12,0 7,0 13 7 E - 10
13.12.2018 11:00:00 10,0 6,0 13 7 ENE - 10
13.12.2018 10:00:00 7,6 5,0 11 6 ENE 1012,2 10
13.12.2018 09:00:00 7,0 4,0 11 6 NE - 10
13.12.2018 08:00:00 7,0 3,0 11 6 NE - 10
13.12.2018 07:00:00 7,2 2,0 8 4 ENE 1012,4 10
13.12.2018 06:00:00 7,0 2,0 11 6 E - 10
13.12.2018 05:00:00 8,0 1,0 11 6 ENE - 10
13.12.2018 04:00:00 7,6 1,1 13 7 ENE 1013,6 20
13.12.2018 03:00:00 7,0 1,0 18 10 NE - 10
13.12.2018 02:00:00 8,0 -1,0 15 8 NE - 10
13.12.2018 01:00:00 8,3 -1,3 11 6 NE 1015,8 10
13.12.2018 00:00:00 8,0 -1,0 15 8 NE - 10
12.12.2018 23:00:00 8,0 1,0 18 10 NE - 10
12.12.2018 22:00:00 7,5 0,0 4 2 - 1016,9 10
12.12.2018 21:00:00 8,0 0,0 11 6 ENE - 10
12.12.2018 20:00:00 8,0 0,0 13 7 ENE - 10
12.12.2018 19:00:00 7,9 0,2 13 7 ENE 1017,3 10
12.12.2018 18:00:00 8,0 0,0 9 5 ENE - 10
12.12.2018 17:00:00 9,0 2,0 9 5 ENE - 10
12.12.2018 16:00:00 9,4 2,0 8 4 ENE 1017,8 10
12.12.2018 15:00:00 10,0 2,0 9 5 ENE - 10
12.12.2018 14:00:00 9,0 1,0 8 4 NE - 10
12.12.2018 13:00:00 9,1 0,3 13 7 ENE 1018,5 10
12.12.2018 12:00:00 8,0 -1,0 13 7 E - 10
12.12.2018 11:00:00 7,0 -1,0 15 8 ENE - 10
12.12.2018 10:00:00 7,2 -0,7 13 7 NE 1020,2 10
12.12.2018 09:00:00 3,0 -2,0 9 5 ENE - 10
12.12.2018 08:00:00 1,0 -3,0 5 3 - - 10
12.12.2018 07:00:00 1,3 -3,0 9 5 ENE 1019,5 10
12.12.2018 06:00:00 2,0 -3,0 5 3 - - 10
12.12.2018 05:00:00 1,0 -3,0 11 6 NE - 10
12.12.2018 04:00:00 1,9 -2,6 15 8 ENE 1019,4 10
12.12.2018 03:00:00 3,0 -2,0 5 3 - - 10
12.12.2018 02:00:00 3,0 -2,0 9 5 NE - 10
12.12.2018 01:00:00 3,0 -1,7 8 4 NE 1019,2 10
12.12.2018 00:00:00 4,0 -2,0 9 5 E - 10
11.12.2018 23:00:00 3,0 -1,0 13 7 ENE - 10
11.12.2018 22:00:00 3,8 -1,9 11 6 ENE 1019,1 10
11.12.2018 21:00:00 6,0 -2,0 5 3 NE - 10
11.12.2018 20:00:00 5,0 -1,0 4 2 - - 10
11.12.2018 19:00:00 6,9 -0,7 8 4 NE 1018,4 10
11.12.2018 18:00:00 7,0 2,0 8 4 N - 10
11.12.2018 17:00:00 11,0 0,0 5 3 ENE - 10
11.12.2018 16:00:00 11,6 1,6 11 6 E 1017,0 10
11.12.2018 15:00:00 14,0 -1,0 8 4 NW - 10
11.12.2018 14:00:00 14,0 1,0 5 3 - - 10

tt = Température de l'air
td = dewpoint
ff = Vitesse du vent
dd = Direction du vent
ppp = reduced air pressure
vv = visibility

stations d'obs. à proximité